Powrót do katalogu

CZ-4C DEB

AktywnyLEO
NORAD 44617·DEBRIS·🇨🇳 China

Wystrzelony Apr 10, 2018 z Taiyuan Satellite Launch Center

Loading…

Następne Przeloty (najbliższe 24 godziny)

TLE

ŚwieżeSource: Space-Track

Epoka: Sep 12, 2026, 16:18 UTC

1 44617U 18034J   26255.67918129 -.00000048  00000-0  61900-4 0  9994
2 44617  63.3959 287.0332 0259743   7.5826 352.9008 13.41014693405976

Śledź CZ-4C DEB w czasie rzeczywistym z AllMySat

Download on the App Store